Regional Weather Roundup
Issued by NWS

Home | Current Version | Previous Version | Graphics & Text | Print | Product List | Glossary On
Versions: 1 2 3 4 5 6 7 8 9 10 11 12 13 14 15 16 17 18 19 20 21 22 23 24 25 26 27 28 29 30 31 32 33 34 35 36 37 38 39 40 41 42 43 44 45 46 47 48 49
000
ASUS43 KDMX 220107
RWRIA

WEATHER ROUNDUP FOR IOWA
NATIONAL WEATHER SERVICE DES MOINES IA
800 PM CDT THU AUG 21 2014

NOTE: "FAIR" INDICATES FEW OR NO CLOUDS BELOW 12,000 FEET WITH NO
SIGNIFICANT WEATHER AND/OR OBSTRUCTIONS TO VISIBILITY.

* - THESE STATIONS ARE NOT NWS STATIONS...THUS NOT UNDER NWS
QUALITY CONTROL.  THEY ALSO DO NOT REPORT WEATHER SUCH
AS PRECIPITATION OR FOG.

IAZ001>003-012>014-020>022-031>034-043>046-220200-
   NORTHWEST IOWA

CITY           SKY/WX    TMP DP  RH WIND       PRES   REMARKS
CARROLL *      CLEAR     79  77  94 CALM      29.85S HX  83
CHEROKEE *     MOCLDY    84  79  84 CALM      29.83F HX  96
DENISON *      CLEAR     82  75  78 CALM      29.83S HX  89
LE MARS *      CLEAR     84  79  84 CALM      29.83S HX  96
ORANGE CITY *  MOCLDY    84  75  74 SW3       29.85R HX  92
SHELDON *      CLOUDY    82  77  83 NW3       29.84R HX  91
SIOUX CITY     CLEAR     85  76  74 N3        29.82S HX  94
SPENCER        PTCLDY    81  76  84 S3        29.85R HX  87
STORM LAKE *   PTCLDY    79  79 100 S3        29.86S HX  83
$$

IAZ055>058-069>071-079>083-090>094-220200-
   SOUTHWEST IOWA

CITY           SKY/WX    TMP DP  RH WIND       PRES   REMARKS
ATLANTIC *     CLEAR     84  77  79 SE3       29.85R HX  94
AUDUBON *      CLEAR     82  79  89 CALM      29.87S HX  93
CLARINDA *     CLOUDY    84  81  89 N5        29.84S HX  98
COUNCIL BLFS * CLEAR     82  79  89 SE6       29.84R HX  93
CRESTON *      CLEAR     82  79  89 SE3       29.86F HX  93
HARLAN  *      CLEAR     82  77  83 S5        29.88S HX  91
LAMONI         PTCLDY    83  76  79 SE6       29.86S HX  91
RED OAK *      CLEAR     82  79  89 NE5       29.84S HX  93
SHENANDOAH *   CLEAR     84  81  89 N5        29.83R HX  98
$$

IAZ047>049-059>061-072>074-084-220200-
   CENTRAL IOWA

CITY           SKY/WX    TMP DP  RH WIND       PRES   REMARKS
AMES           CLEAR     81  75  82 CALM      29.86R HX  87
ANKENY *       PTCLDY    82  77  83 S6        29.84S HX  91
CHARITON *     CLEAR     82  79  89 SE6       29.87S HX  93
DES MOINES     PTCLDY    84  76  76 S5        29.84S HX  93
GRINNELL*      CLEAR     79  73  83 SE6       29.87F HX  82
KNOXVILLE *    CLEAR     82  77  83 SE3       29.85S HX  91
MARSHALLTOWN   CLEAR     80  75  84 S6        29.86S HX  85
PELLA *        CLEAR     81  77  89 CALM      29.87S HX  88
PERRY *          N/A     81  77  89 NW3       29.86R HX  88
$$

IAZ004>006-015-016-023>025-035-036-220200-
   NORTH CENTRAL IOWA

CITY           SKY/WX    TMP DP  RH WIND       PRES   REMARKS
ALGONA *       CLEAR     81  75  83 S6        29.85S HX  86
CLARION *      CLEAR     79  75  89 SW7       29.85F HX  82
ESTHERVILLE    PTCLDY    80  74  81 SW7       29.85R HX  85
FORT DODGE *   CLEAR     81  73  78 S7        29.86S HX  85
MASON CITY     CLEAR     80  73  79 S6        29.87S HX  84
FOREST CITY *  CLEAR     79  73  83 S5        29.85S HX  82
IOWA FALLS *     N/A     81  73  78 S6        29.88S HX  85
$$

IAZ007>011-017>019-026>030-037>042-050>054-066-220200-
   NORTHEAST IOWA

CITY           SKY/WX    TMP DP  RH WIND       PRES   REMARKS
CEDAR RAPIDS   PTCLDY    79  75  87 S8        29.86F HX  83
CHARLES CITY * CLEAR     77  72  83 S7        29.87S
CLINTON *      CLOUDY    77  73  88 S5        29.90R
DECORAH *      CLEAR     75  72  88 S5        29.88S
DUBUQUE        MOCLDY    74  71  91 CALM      29.91R
MONTICELLO *   CLOUDY    77  73  88 CALM      29.88S
OELWEIN *      CLOUDY    75  73  94 SE5       29.90S
WATERLOO       PTCLDY    80  72  76 S6        29.86S HX  84
$$

IAZ064-065-067-068-078-220200-
   EAST CENTRAL IOWA

CITY           SKY/WX    TMP DP  RH WIND       PRES   REMARKS
DAVENPORT      MOCLDY    77  74  90 S6        29.88F
IOWA CITY      MOCLDY    78  76  93 SE3       29.88F HX  81
MT. PLEASANT * PTCLDY    82  75  78 CALM      29.88R HX  89
MUSCATINE *    MOCLDY    82  75  78 CALM      29.87S HX  89
QUAD CITIES    MOCLDY    81  73  76 CALM      29.87F HX  86
$$

IAZ062-063-075>077-085>089-095>099-220200-
   SOUTHEAST IOWA

CITY           SKY/WX    TMP DP  RH WIND       PRES   REMARKS
BURLINGTON     LGT RAIN  82  78  88 S5        29.87F HX  91
FAIRFIELD *    PTCLDY    82  77  83 S6        29.88S HX  91
FORT MADISON * CLEAR     84  79  84 S5        29.89S HX  96
KEOKUK *       CLEAR     84  79  84 S5        29.87S HX  96
OSKALOOSA *      N/A     79  77  94 SE6       29.87F HX  83
CENTERVILLE *  CLEAR     81  79  94 CALM      29.89S HX  89
OTTUMWA        MOCLDY    81  77  88 S3        29.87F HX  88
WASHINGTON *   MOCLDY    79  77  94 SE5       29.88S HX  83
$$

ABBREVIATIONS USED IN REMARKS
   TC - TEMPERATURES IN CELSIUS
  WCI - WIND CHILL INDEX
   HX - HEAT INDEX
  VSB - VISIBILITY
$$




USA.gov is the U.S. government's official web portal to all federal, state and local government web resources and services.